sat.trackr.live / text

‹ back to catalog

STARLINK-11083 [DTC]

NORAD 59424 · 2024-065D

PAYLOAD ACTIVE UNKNOWN

§ Identity

Operator
Country
US
Launch date
2024-04-07
Launch site
AFWTR
Launch vehicle
Mass (kg)
RCS (m²)

Purposes: comms

External: N2YO · Heavens-Above · Gunter

§ Orbital elements

Epoch: 2026-09-21T13:07:35.337792Z

Period
91.74 min
Inclination
53.1591°
Eccentricity
0.0000910
Mean motion
15.69707605 rev/d
Perigee alt
359.1 km
Apogee alt
360.3 km
Semi-major
6,737.9 km
B*
2.7054e-6
RAAN
208.4562°
Arg perigee
106.4702°
Mean anomaly
253.6416°
Rev number
14,223

§ Raw data

STARLINK-11083 [DTC]1 59424U 24065D   26264.54693678 -.00000261  00000+0  27054-5 0  99912 59424  53.1591 208.4562 0000910 106.4702 253.6416 15.69707605142232

JSON: /api/v1/satellites/59424 · /tle

For live sub-satellite position, see the globe view (requires WebGL).

§ Visibility from observer

Set your observer location to see the next 7 days of passes ≥ 10°. The values pass through the URL so the page stays shareable.

No JS? Fill the form by hand. The geolocation button needs JavaScript.